Regional Weather Roundup
Issued by NWS Little Rock, AR

Home | Current Version | Previous Version | Text Only | Print | Product List | Glossary On
Versions: 1 2 3 4 5 6 7 8 9 10 11 12 13 14 15 16 17 18 19 20 21 22 23 24 25 26 27 28 29 30 31 32 33 34 35 36 37 38 39 40 41 42 43 44 45 46 47 48 49 50
000
ASUS44 KLZK 272205
RWRLZK

WEATHER ROUNDUP FOR ARKANSAS
NATIONAL WEATHER SERVICE LITTLE ROCK AR
500 PM CDT FRI MAR 27 2015

NOTE: "FAIR" INDICATES FEW OR NO CLOUDS BELOW 12,000 FEET WITH NO
SIGNIFICANT WEATHER AND/OR OBSTRUCTIONS TO VISIBILITY.

ARZ001-003-010-029-272300-
NORTHWEST ARKANSAS

CITY           SKY/WX    TMP DP  RH WIND       PRES   REMARKS
FAYETTEVILLE   SUNNY     49  26  41 NW14      30.13F
FORT SMITH     SUNNY     56  22  26 N7        30.13F
HARRISON       SUNNY     46  23  40 NW9       30.12F
BENTONVILLE    SUNNY     48  25  40 N8        30.14S
ROGERS         SUNNY     47  22  37 NW13      30.13F
SILOAM SPGS    SUNNY     48  25  40 N9        30.15F
HIGHFILL       SUNNY     50  23  34 N13       30.12F
SPRINGDALE     SUNNY     50  23  34 NW10G17   30.15F
$$

ARZ004-005-016-272300-
NORTH CENTRAL ARKANSAS

CITY           SKY/WX    TMP DP  RH WIND       PRES   REMARKS
BATESVILLE     PTSUNNY   52  28  40 N9        30.13R
FLIPPIN        MOSUNNY   48  23  37 NW9       30.12F
MTN HOME       MOSUNNY   48  23  37 N7        30.11F
$$

ARZ040-041-272300-
WEST CENTRAL ARKANSAS

CITY           SKY/WX    TMP DP  RH WIND       PRES   REMARKS
MENA           SUNNY     57  32  38 NW7G16    30.13S
MOUNT IDA      MOSUNNY   58  28  32 VRB5      30.09F
$$

ARZ009-017-025-026-028-272300-
NORTHEAST ARKANSAS

CITY           SKY/WX    TMP DP  RH WIND       PRES   REMARKS
CORNING          N/A     48  25  40 N13       30.13R
JONESBORO      PTSUNNY   49  28  44 N9        30.11F
NEWPORT        MOSUNNY   50  30  46 NW15      30.14R
BLYTHEVILLE    CLOUDY    45  31  58 N21       30.13S
$$

ARZ022-023-033-042-044-272300-
CENTRAL ARKANSAS

CITY           SKY/WX    TMP DP  RH WIND       PRES   REMARKS
LITTLE ROCK    MOSUNNY   55  27  34 N10G21    30.13S
N LITTLE ROCK  MOSUNNY   54  31  41 N12G17    30.13S
JACKSONVILLE   PTSUNNY   55  32  41 N13G20    30.12S
SEARCY         PTSUNNY   52  28  39 N10       30.14S
HOT SPRINGS    MOSUNNY   56  26  31 NW7G17    30.12S
RUSSELLVILLE   SUNNY     56  25  30 NW9       30.11F
CLINTON        FAIR      52  27  37 NW8       30.14S
$$

ARZ036-272300-
EAST ARKANSAS

CITY           SKY/WX    TMP DP  RH WIND       PRES   REMARKS
WEST MEMPHIS   MOSUNNY   48  34  58 N15       30.10F
$$

ARZ050-053-066-070-073-272300-
SOUTHWEST ARKANSAS

CITY           SKY/WX    TMP DP  RH WIND       PRES   REMARKS
ARKADELPHIA    FAIR      60  38  44 N12       30.12S
CAMDEN         MOSUNNY   63  32  31 MISG      30.10S
TEXARKANA      SUNNY     64  31  28 NW10G21   30.10R
EL DORADO      SUNNY     63  34  33 NW14G21   30.09S
DE QUEEN       SUNNY     60  32  34 NW8       30.11S
$$

ARZ056-057-069-272300-
SOUTHEAST ARKANSAS

CITY           SKY/WX    TMP DP  RH WIND       PRES   REMARKS
PINE BLUFF     PTSUNNY   53  39  59 N16       30.13S
STUTTGART      PTSUNNY   54  36  50 NW10      30.12F
MONTICELLO     MOSUNNY   56  37  49 N9        30.11R

$$





USA.gov is the U.S. government's official web portal to all federal, state and local government web resources and services.